| time (UTC) | temp C | wind direction | speed KPH | gust KPH | rain 1hr cm | rain 24hr cm | rain mn cm | humidity % | barometer mb |
| 20260506111848 | 13 | 338 | 12.9 | 27.4 | 0.00 | 0.03 | 0.13 | 80 | 1016.1 |
| 20260506110945 | 13 | 336 | 6.4 | 22.5 | 0.00 | 0.03 | 0.13 | 79 | 1016.5 |
| 20260506110045 | 13 | 350 | 8.0 | 22.5 | 0.00 | 0.03 | 0.13 | 85 | 1016.8 |
| 20260506105145 | 13 | 352 | 8.0 | 22.5 | 0.00 | 0.03 | 0.13 | 86 | 1017.1 |
| 20260506104245 | 13 | 334 | 3.2 | 20.9 | 0.00 | 0.03 | 0.13 | 87 | 1016.9 |
| 20260506103345 | 13 | 356 | 6.4 | 22.5 | 0.00 | 0.03 | 0.13 | 90 | 1016.7 |
| 20260506102445 | 12 | 358 | 9.7 | 19.3 | 0.00 | 0.03 | 0.13 | 96 | 1017.0 |
| 20260506101545 | 12 | 21 | 6.4 | 17.7 | 0.00 | 0.03 | 0.13 | 97 | 1017.1 |
| 20260506100645 | 12 | 59 | 3.2 | 17.7 | 0.00 | 0.03 | 0.13 | 97 | 1016.8 |
| 20260506095745 | 12 | 86 | 9.7 | 12.9 | 0.00 | 0.03 | 0.13 | 96 | 1017.1 |
| 20260506094845 | 12 | 74 | 4.8 | 14.5 | 0.00 | 0.03 | 0.13 | 95 | 1017.2 |
| 20260506092145 | 13 | 359 | 9.7 | 16.1 | 0.00 | 0.03 | 0.13 | 88 | 1017.6 |
| 20260506091245 | 14 | 358 | 6.4 | 14.5 | 0.00 | 0.03 | 0.13 | 88 | 1017.6 |
| 20260506090345 | 14 | 356 | 4.8 | 12.9 | 0.00 | 0.03 | 0.13 | 88 | 1017.6 |
| 20260506085445 | 14 | 334 | 3.2 | 12.9 | 0.00 | 0.03 | 0.13 | 88 | 1017.7 |
| 20260506084545 | 14 | 4 | 1.6 | 8.0 | 0.00 | 0.03 | 0.13 | 89 | 1017.9 |
| 20260506083645 | 14 | 314 | 3.2 | 14.5 | 0.00 | 0.03 | 0.13 | 90 | 1017.7 |
| 20260506082745 | 13 | 43 | 8.0 | 14.5 | 0.00 | 0.03 | 0.13 | 95 | 1017.6 |
| 20260506080945 | 13 | 2 | 3.2 | 14.5 | 0.00 | 0.03 | 0.13 | 93 | 1017.7 |
| 20260506073345 | 13 | 71 | 4.8 | 9.7 | 0.00 | 0.03 | 0.10 | 88 | 1017.5 |
| 20260506072445 | 13 | 91 | 6.4 | 19.3 | 0.00 | 0.03 | 0.10 | 86 | 1017.3 |
| 20260506071545 | 13 | 85 | 8.0 | 17.7 | 0.00 | 0.03 | 0.10 | 85 | 1017.3 |
| 20260506070645 | 13 | 90 | 12.9 | 16.1 | 0.00 | 0.03 | 0.10 | 86 | 1017.5 |
| 20260506061245 | 13 | 345 | 8.0 | 17.7 | 0.00 | 0.03 | 0.10 | 83 | 1017.2 |
| 20260506060345 | 13 | 340 | 6.4 | 16.1 | 0.00 | 0.03 | 0.10 | 82 | 1017.5 |
| 20260506050944 | 12 | 332 | 6.4 | 17.7 | 0.00 | 0.03 | 0.10 | 86 | 1017.7 |
| 20260506044244 | 12 | 146 | 0.0 | 8.0 | 0.00 | 0.03 | 0.10 | 93 | 1017.9 |
| 20260506043346 | 11 | 147 | 4.8 | 11.3 | 0.00 | 0.03 | 0.10 | 96 | 1018.0 |
| 20260506042445 | 11 | 90 | 0.0 | 6.4 | 0.00 | 0.03 | 0.10 | 96 | 1018.4 |
| 20260506041545 | 11 | 72 | 3.2 | 9.7 | 0.00 | 0.03 | 0.10 | 96 | 1018.3 |
| 20260506040644 | 11 | 1 | 1.6 | 4.8 | 0.00 | 0.03 | 0.10 | 95 | 1018.5 |
| 20260506035745 | 11 | 40 | 1.6 | 4.8 | 0.00 | 0.03 | 0.10 | 94 | 1018.4 |
| 20260506034844 | 11 | 61 | 1.6 | 6.4 | 0.00 | 0.00 | 0.10 | 94 | 1018.3 |
| 20260506033945 | 11 | 90 | 0.0 | 3.2 | 0.00 | 0.00 | 0.10 | 92 | 1018.6 |
| 20260506033045 | 11 | 113 | 3.2 | 3.2 | 0.00 | 0.00 | 0.10 | 92 | 1018.4 |
| 20260506032144 | 11 | 119 | 1.6 | 4.8 | 0.00 | 0.00 | 0.10 | 91 | 1018.1 |
| 20260506031244 | 11 | 4 | 3.2 | 6.4 | 0.00 | 0.00 | 0.10 | 91 | 1018.3 |
| 20260506025444 | 11 | 73 | 0.0 | 3.2 | 0.00 | 0.00 | 0.00 | 91 | 1018.2 |
| 20260506024544 | 11 | 328 | 0.0 | 3.2 | 0.00 | 0.00 | 0.00 | 90 | 1018.2 |
| 20260506022744 | 11 | 82 | 1.6 | 6.4 | 0.00 | 0.00 | 0.00 | 89 | 1018.3 |
| 20260506021845 | 11 | 79 | 3.2 | 6.4 | 0.00 | 0.00 | 0.00 | 92 | 1018.0 |
| 20260506020945 | 11 | 1 | 0.0 | 3.2 | 0.00 | 0.00 | 0.00 | 92 | 1018.3 |
| 20260506020044 | 11 | 1 | 1.6 | 6.4 | 0.00 | 0.00 | 0.00 | 92 | 1018.3 |
| 20260506015144 | 11 | 27 | 1.6 | 8.0 | 0.00 | 0.00 | 0.00 | 90 | 1018.2 |
| 20260506014244 | 11 | 194 | 1.6 | 4.8 | 0.00 | 0.00 | 0.00 | 89 | 1018.2 |
| 20260506013344 | 11 | 208 | 1.6 | 4.8 | 0.00 | 0.00 | 0.00 | 88 | 1018.1 |
| 20260506011544 | 11 | 184 | 3.2 | 4.8 | 0.00 | 0.00 | 0.00 | 85 | 1018.4 |
| 20260506010644 | 11 | 191 | 0.0 | 6.4 | 0.00 | 0.00 | 0.00 | 84 | 1018.3 |
| 20260506005744 | 12 | 79 | 1.6 | 6.4 | 0.00 | 0.00 | 0.00 | 80 | 1018.0 |
| 20260506004844 | 12 | 1 | 0.0 | 6.4 | 0.00 | 0.00 | 0.00 | 80 | 1018.1 |
| 20260506003944 | 12 | 51 | 1.6 | 6.4 | 0.00 | 0.00 | 0.00 | 80 | 1018.5 |
| 20260506003045 | 12 | 82 | 3.2 | 12.9 | 0.00 | 0.00 | 0.00 | 80 | 1018.2 |
| 20260506002144 | 12 | 107 | 6.4 | 11.3 | 0.00 | 0.00 | 0.00 | 77 | 1018.3 |
| 20260506001245 | 13 | 23 | 3.2 | 6.4 | 0.00 | 0.00 | 0.00 | 75 | 1017.9 |
| 20260506000344 | 13 | 63 | 1.6 | 16.1 | 0.00 | 0.00 | 0.00 | 70 | 1018.0 |
| 20260505235444 | 13 | 76 | 6.4 | 16.1 | 0.00 | 0.00 | 0.00 | 66 | 1017.8 |
| 20260505234544 | 14 | 67 | 6.4 | 8.0 | 0.00 | 0.00 | 0.00 | 65 | 1018.0 |
| 20260505233644 | 15 | 18 | 1.6 | 6.4 | 0.00 | 0.00 | 0.00 | 69 | 1017.8 |
| 20260505232744 | 13 | 80 | 1.6 | 12.9 | 0.00 | 0.00 | 0.00 | 68 | 1018.1 |
| 20260505231844 | 13 | 81 | 0.0 | 11.3 | 0.00 | 0.00 | 0.00 | 83 | 1018.0 |
| 20260505230944 | 13 | 53 | 3.2 | 6.4 | 0.00 | 0.00 | 0.00 | 99 | 1018.4 |
| 20260505230044 | 11 | 85 | 1.6 | 8.0 | 0.00 | 0.00 | 0.00 | 98 | 1018.5 |
| 20260505225144 | 10 | 42 | 1.6 | 6.4 | 0.00 | 0.00 | 0.00 | 99 | 1018.6 |
| 20260505224244 | 10 | 77 | 0.0 | 6.4 | 0.00 | 0.00 | 0.00 | 99 | 1018.6 |
| 20260505223344 | 10 | 67 | 3.2 | 6.4 | 0.00 | 0.00 | 0.00 | 99 | 1018.2 |
| 20260505222445 | 9 | 2 | 3.2 | 6.4 | 0.00 | 0.00 | 0.00 | 99 | 1018.6 |
| 20260505221544 | 9 | 191 | 0.0 | 6.4 | 0.00 | 0.00 | 0.00 | 99 | 1018.8 |
| 20260505220644 | 8 | 252 | 0.0 | 6.4 | 0.00 | 0.00 | 0.00 | 99 | 1018.8 |
| 20260505215744 | 8 | 220 | 1.6 | 12.9 | 0.00 | 0.00 | 0.00 | 99 | 1018.9 |
| 20260505214844 | 7 | 324 | 3.2 | 6.4 | 0.00 | 0.00 | 0.00 | 97 | 1019.4 |
| 20260505213944 | 7 | 60 | 1.6 | 6.4 | 0.00 | 0.00 | 0.00 | 97 | 1019.1 |
| 20260505213045 | 7 | 67 | 3.2 | 6.4 | 0.00 | 0.00 | 0.00 | 97 | 1018.9 |
| 20260505212144 | 7 | 51 | 3.2 | 6.4 | 0.00 | 0.00 | 0.00 | 97 | 1018.9 |
| 20260505211244 | 6 | 212 | 3.2 | 4.8 | 0.00 | 0.00 | 0.00 | 98 | 1018.9 |
| 20260505210344 | 6 | 265 | 3.2 | 4.8 | 0.00 | 0.00 | 0.00 | 98 | 1018.7 |
| 20260505205444 | 6 | 97 | 0.0 | 6.4 | 0.00 | 0.00 | 0.00 | 98 | 1018.7 |
| 20260505204544 | 5 | 111 | 3.2 | 6.4 | 0.00 | 0.00 | 0.00 | 99 | 1018.8 |
| 20260505203644 | 5 | 113 | 3.2 | 6.4 | 0.00 | 0.00 | 0.00 | 99 | 1018.8 |
| 20260505202744 | 5 | 176 | 0.0 | 6.4 | 0.00 | 0.00 | 0.00 | 99 | 1019.0 |
| 20260505201844 | 5 | 264 | 3.2 | 6.4 | 0.00 | 0.00 | 0.00 | 99 | 1018.8 |
| 20260505200944 | 5 | 302 | 4.8 | 6.4 | 0.00 | 0.00 | 0.00 | 99 | 1018.6 |
| 20260505200044 | 5 | 322 | 0.0 | 3.2 | 0.00 | 0.00 | 0.00 | 99 | 1018.7 |
| 20260505194244 | 5 | 75 | 3.2 | 3.2 | 0.00 | 0.00 | 0.00 | 99 | 1018.6 |
| 20260505192444 | 5 | 181 | 0.0 | 3.2 | 0.00 | 0.00 | 0.00 | 99 | 1018.6 |
| 20260505190644 | 5 | 1 | 0.0 | 3.2 | 0.00 | 0.00 | 0.00 | 99 | 1018.7 |
| 20260505185744 | 5 | 181 | 0.0 | 3.2 | 0.00 | 0.00 | 0.00 | 99 | 1018.5 |
| 20260505184844 | 5 | 329 | 1.6 | 4.8 | 0.00 | 0.00 | 0.00 | 99 | 1018.7 |
| 20260505183944 | 5 | 233 | 0.0 | 6.4 | 0.00 | 0.00 | 0.00 | 99 | 1018.5 |
| 20260505183044 | 5 | 268 | 0.0 | 3.2 | 0.00 | 0.00 | 0.00 | 99 | 1018.4 |
| 20260505181243 | 5 | 219 | 0.0 | 3.2 | 0.00 | 0.00 | 0.00 | 99 | 1018.5 |
| 20260505180344 | 5 | 223 | 0.0 | 4.8 | 0.00 | 0.00 | 0.00 | 99 | 1018.7 |
| 20260505172745 | 6 | 198 | 0.0 | 3.2 | 0.00 | 0.00 | 0.00 | 98 | 1018.7 |
| 20260505170943 | 6 | 315 | 1.6 | 3.2 | 0.00 | 0.00 | 0.00 | 98 | 1018.9 |
| 20260505170043 | 6 | 344 | 1.6 | 3.2 | 0.00 | 0.00 | 0.00 | 98 | 1018.8 |
| 20260505164243 | 6 | 225 | 0.0 | 3.2 | 0.00 | 0.00 | 0.00 | 98 | 1019.0 |
| 20260505163343 | 6 | 220 | 0.0 | 4.8 | 0.00 | 0.00 | 0.00 | 98 | 1018.9 |
| 20260505161544 | 6 | 225 | 0.0 | 3.2 | 0.00 | 0.00 | 0.00 | 98 | 1018.9 |
| 20260505160643 | 6 | 230 | 1.6 | 4.8 | 0.00 | 0.00 | 0.00 | 98 | 1019.1 |
| 20260505153044 | 6 | 184 | 0.0 | 3.2 | 0.00 | 0.00 | 0.00 | 98 | 1019.7 |
| 20260505152144 | 6 | 343 | 0.0 | 3.2 | 0.00 | 0.00 | 0.00 | 98 | 1019.7 |
| 20260505151244 | 6 | 310 | 0.0 | 3.2 | 0.00 | 0.00 | 0.00 | 98 | 1019.9 |
| 20260505150344 | 6 | 288 | 0.0 | 3.2 | 0.00 | 0.00 | 0.00 | 98 | 1019.5 |
| 20260505124843 | 7 | 1 | 0.0 | 3.2 | 0.00 | 0.00 | 0.00 | 97 | 1021.0 |
| 20260505123943 | 7 | 300 | 0.0 | 3.2 | 0.00 | 0.00 | 0.00 | 97 | 1021.1 |
| 20260505122143 | 7 | 254 | 0.0 | 3.2 | 0.00 | 0.00 | 0.00 | 97 | 1021.3 |
| 20260505121243 | 7 | 230 | 1.6 | 3.2 | 0.00 | 0.00 | 0.00 | 97 | 1021.3 |
| 20260505120343 | 7 | 1 | 0.0 | 4.8 | 0.00 | 0.00 | 0.00 | 97 | 1021.3 |
| 20260505115443 | 7 | 19 | 0.0 | 4.8 | 0.00 | 0.00 | 0.00 | 97 | 1021.2 |
| 20260505114543 | 7 | 62 | 0.0 | 3.2 | 0.00 | 0.00 | 0.00 | 97 | 1021.5 |
| 20260505113643 | 7 | 181 | 0.0 | 3.2 | 0.00 | 0.00 | 0.00 | 97 | 1021.6 |